Regional Weather Roundup
Issued by NWS

Home | Current Version | Previous Version | Graphics & Text | Print | Product List | Glossary Off
Versions: 1 2 3 4 5 6 7 8 9 10 11 12 13 14 15 16 17 18 19 20 21 22 23 24 25 26 27 28 29 30 31 32 33 34 35 36 37 38 39 40 41 42 43 44 45 46 47 48 49 50

000
ASUS43 KMKX 290700
RWRWI

WISCONSIN REGIONAL WEATHER ROUNDUP
NATIONAL WEATHER SERVICE MILWAUKEE/SULLIVAN WI
200 AM CDT WED MAR 29 2017

NOTE: "FAIR" INDICATES FEW OR NO CLOUDS BELOW 12,000 FEET WITH NO
SIGNIFICANT WEATHER AND/OR OBSTRUCTIONS TO VISIBILITY.

WIZ001-002-006>008-014>016-023>028-290800-
NORTHWEST WISCONSIN

CITY           SKY/WX    TMP DP  RH WIND       PRES   REMARKS
SUPERIOR ARPT  CLEAR     35  32  88 NE8       30.30R WCI  28
ASHLAND        CLEAR     31  29  92 N7        30.28F WCI  24
HAYWARD        CLEAR     31  25  78 N7        30.24R WCI  24
SIREN          CLEAR     36  25  65 NE3       30.22R
CUMBERLAND     CLEAR     32  27  80 CALM      30.21S
RICE LAKE      CLEAR     32  30  93 CALM      30.23R
CHETEK         CLEAR     31  28  88 CALM      30.22R
LADYSMITH      CLEAR     39  27  62 E5        30.24R
EAU CLAIRE     NOT AVBL
MENOMONIE      CLOUDY    37  32  81 CALM      30.21S
NEW RICHMOND   CLOUDY    34  31  87 CALM      30.20R
OSCEOLA        CLOUDY    32  29  86 CALM      30.23R
$$

WIZ003>005-009-010-017-018-290800-
NORTH CENTRAL WISCONSIN

CITY           SKY/WX    TMP DP  RH WIND       PRES   REMARKS
MANITOWISH WTR CLEAR     27  26  99 E5        30.24F WCI  21
ARBOR VITAE    CLEAR     37  31  79 SE5       30.23F WCI  33
WOODRUFF       CLEAR     37  31  79 SE5       30.23F WCI  33
RHINELANDER    CLEAR     34  29  82 E3        30.25S
EAGLE RIVER    CLEAR     29  27  93 CALM      30.25S
LAND O LAKES   CLEAR     28  26  92 CALM      30.28S
PHILLIPS       CLEAR     31  27  83 CALM      30.22F
TOMAHAWK       CLEAR     27  25  91 CALM      30.24F
MEDFORD        CLEAR     32  28  86 E3        30.23R
MERRILL        CLEAR     30  27  91 NE3       30.25S
$$

WIZ029-030-035-036-043>047-290800-
CENTRAL WISCONSIN

CITY           SKY/WX    TMP DP  RH WIND       PRES   REMARKS
WAUSAU         CLEAR     35  28  75 CALM      30.23S
MOSINEE        CLEAR     36  30  80 E5        30.25R WCI  32
MARSHFIELD     CLEAR     36  29  75 NE7       30.22R WCI  30
STEVENS POINT  CLEAR     32  28  86 CALM      30.25R
WAUPACA        CLEAR     36  32  86 CALM      30.25S
WAUTOMA        CLEAR     29  26  89 CALM      30.25R
WISC RAPIDS    CLOUDY    36  30  79 CALM      30.24R
CAMP DOUGLAS   NOT AVBL
$$

WIZ011>013-019>022-031-037>040-048>050-290800-
NORTHEAST WISCONSIN

CITY           SKY/WX    TMP DP  RH WIND       PRES   REMARKS
ANTIGO         CLEAR     32  28  86 CALM      30.25F
SHAWANO        CLEAR     32  30  91 CALM      30.26F
OCONTO         CLEAR     27  27  99 NE3       30.26F
STURGEON BAY   CLEAR     34  32  92 NE5       30.24F WCI  30
GREEN BAY      CLEAR     35  34  96 NE9       30.25F WCI  28
MANITOWOC      NOT AVBL
APPLETON       CLEAR     36  30  80 NE6       30.22F WCI  31
CLINTONVILLE   CLEAR     36  30  80 CALM      30.25F
OSHKOSH        CLEAR     37  30  75 NE6       30.24R WCI  32
$$

WIZ032>034-041-042-053>061-290800-
SOUTHWEST WISCONSIN

CITY           SKY/WX    TMP DP  RH WIND       PRES   REMARKS
LA CROSSE      CLOUDY    43  34  70 S6        30.21R
SPARTA         CLOUDY    32  30  94 CALM      30.22S
VIROQUA        CLOUDY    40  33  77 CALM      30.19S
BOSCOBEL       PTCLDY    37  35  92 CALM      30.21R
PRAIRIE DU CHI PTCLDY    39  37  90 CALM      30.20R
PLATTEVILLE    PTCLDY    40  38  93 E8        30.19S
$$

WIZ056-057-062-063-064-067-068-290800-
SOUTH CENTRAL WISCONSIN

CITY           SKY/WX    TMP DP  RH WIND       PRES   REMARKS
REEDSBURG      CLEAR     39  32  76 CALM      30.20F
BARABOO/DELLS  CLEAR     38  32  81 E5        30.21F WCI  34
LONE ROCK      NOT AVBL
MINERAL POINT  PTCLDY    43  37  81 E7        30.19S
MADISON        CLEAR     35  32  88 SE6       30.22S WCI  30
MIDDLETON      CLEAR     41  36  82 E7        30.22S
WATERTOWN      FOG       33  33 100 CALM      30.23S VSB 1
MONROE         CLOUDY    36  34  93 E7        30.20S WCI  30
JANESVILLE     FOG       36  36 100 E5        30.21F VSB 1/2 WCI  32
$$

WIZ051-052-058>065-066-070>072-290800-
SOUTHEAST WISCONSIN

CITY           SKY/WX    TMP DP  RH WIND       PRES   REMARKS
MILWAUKEE      FOG       34  33  96 SW3       30.23S VSB 1/4
WAUKESHA       FOG       32  32 100 CALM      30.24S VSB 1/4
MILWAUKEE/TIMM FOG       32  30  93 CALM      30.23F VSB 1/4
RACINE         FOG       32  31  96 CALM      30.25S VSB 1/4
KENOSHA        FOG       33  32  96 CALM      30.23S VSB 1/4
FOND DU LAC    CLEAR     35  29  78 N3        30.24R
SHEBOYGAN      CLEAR     32  30  92 CALM      30.24S
WEST BEND      FOG       32  32 100 CALM      30.23S VSB 1/4
JUNEAU         CLEAR     34  32  93 CALM      30.23F
$$

LSZ147-162-290800-
LAKE SUPERIOR

STATION/POSITION TIME  TEMP    WIND        PRES    WAVE
                       AIR SEA DIR/SP/G            HT/PER
                 (UTC) (F)     (DEG/KT/KT) (MB)    (FT/S)
DEVILS ISLAND    0600   37      60/ 19/ 21 1027.2R
PORT WING        0640   34      50/  8/ 11 1025.7S
SAXON HARBOR     0630   29     190/  3/  4 1024.7F
$$

LMZ867-665-643>646-290800-
LAKE MICHIGAN

STATION/POSITION TIME  TEMP    WIND        PRES    WAVE
                       AIR SEA DIR/SP/G            HT/PER
                 (UTC) (F)     (DEG/KT/KT) (MB)    (FT/S)
CHAMBERS ISLAND  0640   32      CALM  /  2 1025.1S
NORTHPORT PIER   0640   36     330/  5/  7 1025.4S
SISTER BAY       0605   33        CALM       N/A
KEWAUNEE LAKESHO 0624   31     330/  2/  5 1024.1
SHEBOYGAN LAKESH 0600   33     350/  4/  4 1024.8R
PORT WASHINGTON  0640   33     300/  3/  6 1024.7S
MILWAUKEE LAKESH 0630   33     300/  4/  4   N/A
KENOSHA   LAKESH 0600   33     330/  3/  4 1023.7
$$

TC  - TEMPERATURE IN CELSIUS
VSB - VISIBILITY IN STATUTE MILES
WCI - WIND CHILL INDEX
HX  - HEAT INDEX





USA.gov is the U.S. government's official web portal to all federal, state and local government web resources and services.